This demonstration page uses our WeatherBlox Daily Observations layout. Learn more.

Left ArrowRight Arrow

Hourly Observations for June 6, 2021

Temp ( °F °C ) Dew Point ( °F °C ) Humidity (%) Winds ( mph kmh ) Pressure ( in mb ) Visibility ( mi km ) Precip ( " mm )
12:59 am 00:59 Clear 76 24.4 69 20.6 79 79 SSW 7 11 30.09 1019 9 14 0.00 0.00
1:59 am 01:59 Clear 75 23.9 69 20.6 82 82 SSW 7 11 30.09 1019 9 14 0.00 0.00
2:59 am 02:59 Clear 74 23.3 69 20.6 85 85 SSW 8 13 30.08 1019 9 14 0.00 0.00
3:59 am 03:59 Clear 74 23.3 69 20.6 85 85 SW 6 9 30.08 1019 9 14 0.00 0.00
4:59 am 04:59 Clear 73 22.8 69 20.6 87 87 SW 5 7 30.09 1019 8 13 0.00 0.00
5:59 am 05:59 Mostly Sunny 72 22.2 68 20 87 87 SW 3 6 30.10 1019 7 11 0.00 0.00
6:59 am 06:59 Mostly Sunny 74 23.3 69 20.6 85 85 SW 5 7 30.12 1020 8 13 0.00 0.00
7:59 am 07:59 Mostly Sunny 77 25 70 21.1 79 79 SSW 5 7 30.13 1020 8 13 0.00 0.00
8:59 am 08:59 Mostly Sunny 80 26.7 69 20.6 69 69 SW 5 7 30.14 1021 9 14 0.00 0.00
9:59 am 09:59 Mostly Sunny 84 28.9 70 21.1 63 63 SSW 6 9 30.14 1021 9 14 0.00 0.00
10:59 am 10:59 Mostly Sunny 87 30.6 70 21.1 57 57 W 5 7 30.14 1021 10 16 0.00 0.00
11:59 am 11:59 Sunny 88 31.1 70 21.1 55 55 Calm 30.13 1020 9 14 0.00 0.00
12:59 pm 12:59 Partly Cloudy 90 32.2 68 20 48 48 undefined N/A 30.11 1020 10 16 0.00 0.00
1:59 pm 13:59 Partly Cloudy 91 32.8 68 20 47 47 VRB 6 9 30.10 1019 10 16 0.00 0.00
2:59 pm 14:59 Partly Cloudy with Thunderstorms 90 32.2 69 20.6 50 50 NE 9 15 30.09 1019 10 16 0.00 0.00
3:59 pm 15:59 Partly Cloudy 90 32.2 70 21.1 52 52 E 9 15 30.08 1019 10 16 0.00 0.00
4:59 pm 16:59 Mostly Cloudy 86 30 69 20.6 57 57 SE 7 11 30.07 1018 10 16 0.00 0.00
5:59 pm 17:59 Mostly Cloudy 88 31.1 72 22.2 59 59 ESE 7 11 30.06 1018 10 16 0.00 0.00
6:59 pm 18:59 Partly Cloudy 87 30.6 66 18.9 50 50 S 8 13 30.06 1018 10 16 0.00 0.00
7:59 pm 19:59 Mostly Sunny 85 29.4 69 20.6 59 59 S 10 17 30.07 1018 10 16 0.00 0.00
8:59 pm 20:59 Mostly Clear 83 28.3 70 21.1 65 65 S 6 9 30.08 1019 10 16 0.00 0.00
9:59 pm 21:59 Mostly Clear 81 27.2 70 21.1 69 69 S 6 9 30.11 1020 10 16 0.00 0.00
10:59 pm 22:59 Mostly Clear 80 26.7 70 21.1 71 71 S 6 9 30.12 1020 10 16 0.00 0.00
11:59 pm 23:59 Clear 79 26.1 71 21.7 77 77 SSW 7 11 30.13 1020 10 16 0.00 0.00

Powered by AerisWeather